Location: Plymouth
(43.7570°N, 71.6890°W)
Time: 19:47:21
(UTC-05:00)

Amateur Radio Satellites - All Passes

Search period start: 05 December 2016 19:17
Search period end: 06 December 2016 19:17
Location: Plymouth, 43.7570°N, 71.6890°W

Satellite Date Start Highest point End Downlink Frequencies (MHz)
Time Altitude Azimuth
PCSat 05 Dec 19:18:05 19:22:55 31° 47° (NE) 19:27:42 145.827
CINEMA 3 05 Dec 19:21:57 19:26:05 27° 267° (W) 19:30:20 145.822/145.860
SO-50 05 Dec 19:28:56 19:33:19 37° 116° (ESE) 19:37:40 436.795
ZACube-1 05 Dec 19:32:33 19:36:57 50° 72° (ENE) 19:41:18 437.345
Cosmos 2504 05 Dec 19:33:24 19:41:40 71° 94° (E) 19:50:28 435.465 / 435.565
DELFI C3 05 Dec 19:34:09 19:36:32 16° 64° (ENE) 19:38:56 145.870
Cosmos 2491 05 Dec 19:35:05 19:41:55 27° 279° (W) 19:48:45 435.465 / 435.565
CUTE 1.7 + AOD 2 05 Dec 19:39:15 19:42:38 23° 266° (W) 19:46:01 437.475
FUNcube-1 05 Dec 19:40:31 19:44:57 56° 73° (ENE) 19:49:21 145.935
CUBEBUG 2 05 Dec 19:42:41 19:47:20 54° 260° (W) 19:52:00 437.445
STRAND 1 05 Dec 19:51:14 19:56:09 50° 290° (WNW) 20:01:02 437.568
CANX-2 05 Dec 19:58:47 20:00:47 13° 270° (W) 20:02:47 2200.000
YUBILEINY 05 Dec 20:02:55 20:11:09 45° 287° (WNW) 20:19:29 435.215
AAUSAT CUBESAT 2 05 Dec 20:04:49 20:08:29 32° 263° (W) 20:12:12 437.432
Oscar 11 05 Dec 20:12:00 20:16:18 71° 258° (WSW) 20:20:38 145.826/435.025
SEEDS 05 Dec 20:26:08 20:27:20 11° 271° (W) 20:28:31 437.485
UWE-3 05 Dec 20:27:00 20:31:05 29° 265° (W) 20:35:08 435.000/436.395/437.385
CUSAT 1 05 Dec 20:32:04 20:35:30 44° 262° (W) 20:39:54 437.405
HO-68 05 Dec 20:32:57 20:37:07 16° 272° (W) 20:41:17 435.675
COMPASS 1 05 Dec 20:36:56 20:38:37 12° 271° (W) 20:40:17 437.405
AIST 1 05 Dec 20:44:59 20:48:05 19° 290° (WNW) 20:51:13
ISS 05 Dec 20:52:26 20:55:24 29° 18° (NNE) 20:58:22 145.825
PCSat 05 Dec 21:01:18 21:06:28 45° 246° (WSW) 21:11:36 145.827
HUMSAT D 05 Dec 21:04:47 21:09:00 86° 75° (ENE) 21:13:13 437.325/437.525
DELFI C3 05 Dec 21:07:15 21:11:00 43° 261° (W) 21:14:47 145.870
PRISM 05 Dec 21:08:59 21:13:10 89° 104° (ESE) 21:17:20 437.425
SO-50 05 Dec 21:09:34 21:13:50 32° 315° (NW) 21:18:04 436.795
ZACube-1 05 Dec 21:10:29 21:13:29 17° 269° (W) 21:16:28 437.345
DANDE 05 Dec 21:13:55 21:16:39 54° 261° (W) 21:19:54 436.750
CUBEBUG 1 05 Dec 21:14:10 21:15:22 11° 59° (ENE) 21:16:35 437.445
FUNcube-1 05 Dec 21:18:51 21:21:31 15° 270° (W) 21:24:09 145.935
Cosmos 2504 05 Dec 21:28:55 21:35:55 28° 296° (WNW) 21:43:14 435.465 / 435.565
UNISAT 6 05 Dec 21:33:36 21:37:42 36° 97° (E) 21:41:41 437.425
JAS-2 05 Dec 21:53:02 21:55:08 12° 89° (E) 21:57:15 435.910
SPROUT 05 Dec 21:58:48 22:01:06 14° 62° (ENE) 22:03:25 437.525
TIGRISAT 05 Dec 22:03:32 22:07:58 73° 103° (ESE) 22:12:15 435.000
ANTELSAT 05 Dec 22:04:53 22:09:20 80° 103° (ESE) 22:13:38 437.575/2403.000
ESTCUBE 1 05 Dec 22:11:18 22:15:43 67° 74° (ENE) 22:20:11 437.505/2401.250
NANOSAT C BR1 05 Dec 22:18:25 22:19:39 11° 89° (E) 22:20:53 145.865
AISAT 05 Dec 22:19:52 22:23:56 37° 69° (ENE) 22:28:02 437.250
QB50P2 05 Dec 22:22:50 22:25:16 15° 91° (E) 22:27:40 145.880/145.840
POLYITAN 1 05 Dec 22:23:31 22:25:47 14° 90° (E) 22:28:02 437.675
ISS 05 Dec 22:28:49 22:32:06 60° 216° (SW) 22:35:21 145.825
50 SAT 05 Dec 22:32:55 22:36:06 33° 71° (ENE) 22:39:18 437.505
QB50P1 05 Dec 22:36:02 22:39:06 19° 93° (E) 22:42:09 145.935-145.965
Cosmos 2499 05 Dec 22:38:19 22:43:29 18° 75° (ENE) 22:48:44 435.465 / 435.565
DUCHIFAT 1 05 Dec 22:39:24 22:42:18 18° 92° (E) 22:45:10 145.980
CUBEBUG 1 05 Dec 22:46:36 22:50:58 85° 258° (WSW) 22:55:23 437.445
GONETS M04 05 Dec 22:47:13 22:52:30 18° 76° (ENE) 22:57:46
VELOX 1 05 Dec 22:56:24 23:00:49 84° 74° (ENE) 23:05:16 145.980
POPSAT HIP 1 05 Dec 22:56:58 23:00:46 31° 96° (E) 23:04:32 437.405
UNISAT 6 05 Dec 23:10:46 23:14:11 22° 295° (WNW) 23:17:33 437.425
DX 1 05 Dec 23:10:59 23:15:17 66° 73° (ENE) 23:19:38 434.975-435.025
UKube-1 05 Dec 23:18:51 23:23:05 60° 73° (ENE) 23:27:22 .
TISAT 1 05 Dec 23:21:12 23:24:08 18° 64° (ENE) 23:27:04 437.305
SPROUT 05 Dec 23:32:16 23:36:32 61° 260° (W) 23:40:49 437.525
JAS-2 05 Dec 23:35:41 23:40:52 79° 287° (WNW) 23:46:16 435.910
BUGSAT 1 05 Dec 23:37:13 23:40:54 29° 96° (E) 23:44:31 437.445
TIGRISAT 05 Dec 23:42:08 23:44:02 13° 300° (WNW) 23:45:54 435.000
ANTELSAT 05 Dec 23:43:50 23:45:21 12° 301° (WNW) 23:46:52 437.575/2403.000
ESTCUBE 1 05 Dec 23:51:04 23:52:59 13° 271° (W) 23:54:55 437.505/2401.250
NANOSAT C BR1 05 Dec 23:51:37 23:55:50 68° 285° (WNW) 00:00:00 145.865
AISAT 05 Dec 23:57:02 00:00:29 22° 266° (W) 00:03:59 437.250
QB50P2 05 Dec 23:57:14 00:01:22 51° 288° (WNW) 00:05:27 145.880/145.840
POLYITAN 1 05 Dec 23:57:46 00:01:55 53° 287° (WNW) 00:06:01 437.675
50 SAT 06 Dec 00:07:26 00:09:31 15° 267° (W) 00:11:36 437.505
QB50P1 06 Dec 00:11:04 00:15:02 39° 290° (WNW) 00:18:57 145.935-145.965
DUCHIFAT 1 06 Dec 00:14:10 00:18:10 41° 289° (WNW) 00:22:07 145.980
Gurwin Techsat 1B 06 Dec 00:20:17 00:21:32 11° 87° (E) 00:22:47 435.225
Oscar 19 06 Dec 00:24:11 00:28:21 24° 94° (E) 00:32:30 437.125/150
O/OREOS (USA 219) 06 Dec 00:24:24 00:27:54 22° 54° (NE) 00:31:22 437.305
Cosmos 2499 06 Dec 00:26:35 00:35:08 82° 96° (E) 00:44:05 435.465 / 435.565
AUBIESAT-1 06 Dec 00:27:08 00:30:41 27° 61° (ENE) 00:34:26 437.475
POPSAT HIP 1 06 Dec 00:32:58 00:36:25 24° 293° (WNW) 00:39:50 437.405
M-CUBED/EXP-1 PRIME 06 Dec 00:38:41 00:42:34 42° 65° (ENE) 00:46:46 437.505
GONETS M04 06 Dec 00:39:14 00:47:58 86° 97° (E) 00:56:43
SWISSCUBE 06 Dec 00:40:46 00:44:55 31° 67° (ENE) 00:49:05 437.505
PHONESAT 2.4 06 Dec 00:41:42 00:43:50 22° 162° (SSE) 00:45:59 2401.200-2431.200
BEESAT 06 Dec 00:44:51 00:49:00 30° 67° (ENE) 00:53:08 436.000
DX 1 06 Dec 00:50:11 00:51:54 12° 270° (W) 00:53:39 434.975-435.025
TISAT 1 06 Dec 00:55:23 00:59:26 44° 261° (W) 01:03:32 437.305
UKube-1 06 Dec 00:57:28 00:59:31 13° 270° (W) 01:01:34 .
ITUPSAT 1 06 Dec 01:11:44 01:16:23 53° 71° (ENE) 01:21:02 437.325
AO-85 06 Dec 01:12:17 01:16:40 32° 116° (ESE) 01:20:47 145.980
BUGSAT 1 06 Dec 01:12:40 01:16:09 26° 293° (WNW) 01:19:36 437.445
JAS-2 06 Dec 01:23:56 01:25:10 11° 305° (NW) 01:26:24 435.910
MOZHAYETS 4 06 Dec 01:52:56 01:57:02 33° 69° (ENE) 02:01:09
AO-7 06 Dec 01:53:40 01:58:40 17° 88° (E) 02:03:39 29.400- 29.500
Gurwin Techsat 1B 06 Dec 01:56:54 02:02:16 85° 105° (ESE) 02:07:35 435.225
AUBIESAT-1 06 Dec 02:01:16 02:04:57 31° 259° (W) 02:08:54 437.475
Oscar 19 06 Dec 02:02:55 02:07:51 45° 291° (WNW) 02:12:47 437.125/150
O/OREOS (USA 219) 06 Dec 02:03:16 02:07:30 42° 253° (WSW) 02:11:43 437.305
M-CUBED/EXP-1 PRIME 06 Dec 02:14:15 02:17:16 20° 263° (W) 02:20:26 437.505
PHONESAT 2.4 06 Dec 02:16:15 02:18:46 39° 179° (S) 02:21:17 2401.200-2431.200
SWISSCUBE 06 Dec 02:18:26 02:22:39 31° 264° (W) 02:26:53 437.505
SO-50 06 Dec 02:20:26 02:21:41 11° 28° (NNE) 02:22:55 436.795
BEESAT 06 Dec 02:22:28 02:26:43 31° 264° (W) 02:30:58 436.000
Cosmos 2499 06 Dec 02:22:34 02:29:21 25° 298° (WNW) 02:36:20 435.465 / 435.565
KKS-1 06 Dec 02:24:43 02:28:40 31° 68° (ENE) 02:32:38 437.445
ITAMSAT 1 06 Dec 02:30:44 02:35:38 41° 98° (E) 02:40:29 435.822/435.867
STARS 06 Dec 02:32:14 02:35:19 19° 63° (ENE) 02:38:25 437.465
GONETS M04 06 Dec 02:39:37 02:45:59 22° 299° (WNW) 02:52:23
ITUPSAT 1 06 Dec 02:51:18 02:54:31 18° 268° (W) 02:57:45 437.325
AO-85 06 Dec 02:52:37 02:57:04 35° 312° (NW) 03:01:14 145.980
MOZHAYETS 4 06 Dec 03:30:22 03:34:13 26° 265° (W) 03:38:04
CUBESAT XI-V 06 Dec 03:31:46 03:36:11 50° 72° (ENE) 03:40:38 437.345
Gurwin Techsat 1B 06 Dec 03:38:36 03:41:29 15° 302° (WNW) 03:44:22 435.225
AO-7 06 Dec 03:44:13 03:52:39 81° 108° (ESE) 04:01:02 29.400- 29.500
PHONESAT 2.4 06 Dec 03:51:27 03:53:43 25° 195° (SSW) 03:55:59 2401.200-2431.200
SO-50 06 Dec 03:58:52 04:03:17 48° 50° (NE) 04:07:37 436.795
KKS-1 06 Dec 04:01:26 04:05:13 27° 265° (W) 04:09:02 437.445
BEESAT 3 06 Dec 04:05:51 04:08:59 24° 114° (ESE) 04:12:10 437.485
STARS 06 Dec 04:07:03 04:11:18 47° 260° (W) 04:15:37 437.465
GOMX 1 06 Dec 04:09:41 04:11:43 12° 86° (E) 04:13:45 467.674
ITAMSAT 1 06 Dec 04:10:35 04:14:54 27° 296° (WNW) 04:19:12 435.822/435.867
YUBILEINY 06 Dec 04:14:53 04:21:33 23° 62° (ENE) 04:28:10 435.215
BRITE-PL 06 Dec 04:30:42 04:35:50 41° 97° (E) 04:41:09 437.365/2234.400
BEESAT 2 06 Dec 04:34:49 04:37:55 22° 113° (ESE) 04:41:03 435.950
Cosmos 2491 06 Dec 04:48:28 04:52:51 15° 74° (ENE) 04:57:12 435.465 / 435.565
HORYU 2 06 Dec 05:04:38 05:09:02 58° 101° (ESE) 05:13:23 437.375
CUBESAT XI-V 06 Dec 05:10:49 05:13:51 17° 269° (W) 05:16:54 437.345
AIST 1 06 Dec 05:13:20 05:15:13 12° 66° (ENE) 05:17:06
Cosmos 2504 06 Dec 05:25:08 05:32:42 30° 66° (ENE) 05:39:54 435.465 / 435.565
STRAND 1 06 Dec 05:29:42 05:34:20 35° 67° (ENE) 05:38:58 437.568
AO-7 06 Dec 05:38:00 05:44:34 27° 308° (NW) 05:51:08 29.400- 29.500
SO-50 06 Dec 05:40:02 05:43:25 21° 248° (WSW) 05:46:45 436.795
BEESAT 3 06 Dec 05:42:52 05:46:27 34° 312° (NW) 05:50:05 437.485
CUTE-I 06 Dec 05:43:22 05:48:25 42° 98° (E) 05:53:25 437.470
GOMX 1 06 Dec 05:44:59 05:50:30 86° 103° (ESE) 05:56:00 467.674
RS-15 06 Dec 05:51:37 06:01:23 32° 103° (ESE) 06:11:28 29.354- 29.394
NOAA 18 06 Dec 05:52:18 05:57:14 32° 96° (E) 06:02:07 137.9125
DOVE 4 06 Dec 05:55:55 06:01:06 49° 98° (E) 06:06:05 437.250
LilacSat-2 06 Dec 05:57:06 06:00:53 67° 102° (ESE) 06:04:36 437.200
NOAA 15 06 Dec 06:06:09 06:11:27 74° 103° (ESE) 06:16:44 137.62
Cubesat XI-IV 06 Dec 06:09:09 06:14:30 71° 103° (ESE) 06:19:48 437.490
HO-68 06 Dec 06:09:20 06:13:38 16° 88° (E) 06:17:54 435.675
BRITE-PL 06 Dec 06:09:29 06:14:07 30° 293° (WNW) 06:18:56 437.365/2234.400
YUBILEINY 06 Dec 06:10:38 06:19:30 84° 263° (W) 06:28:21 435.215
BEESAT 2 06 Dec 06:11:50 06:15:31 36° 311° (NW) 06:19:14 435.950
Cosmos 2491 06 Dec 06:39:21 06:48:05 76° 95° (E) 06:56:50 435.465 / 435.565
HORYU 2 06 Dec 06:42:28 06:45:07 16° 298° (WNW) 06:47:45 437.375
AIST 1 06 Dec 06:48:55 06:53:19 67° 265° (W) 06:57:40
AIST 2 06 Dec 07:01:58 07:05:06 21° 112° (ESE) 07:08:17 435.215
STRAND 1 06 Dec 07:09:00 07:13:30 30° 264° (W) 07:18:03 437.568
CINEMA 3 06 Dec 07:14:34 07:19:27 75° 102° (ESE) 07:24:03 145.822/145.860
Cosmos 2504 06 Dec 07:18:04 07:26:47 66° 268° (W) 07:34:59 435.465 / 435.565
CUTE 1.7 + AOD 2 06 Dec 07:21:39 07:25:48 52° 100° (E) 07:29:54 437.475
CUTE-I 06 Dec 07:23:48 07:28:15 28° 296° (WNW) 07:32:41 437.470
GOMX 1 06 Dec 07:24:43 07:27:50 16° 300° (WNW) 07:30:59 467.674
ANTELSAT 06 Dec 07:32:18 07:32:56 10° 58° (ENE) 07:33:35 437.575/2403.000
CUBEBUG 2 06 Dec 07:32:46 07:36:36 28° 95° (E) 07:40:18 437.445
NOAA 18 06 Dec 07:32:50 07:37:54 38° 294° (WNW) 07:42:56 137.9125
LilacSat-2 06 Dec 07:34:01 07:34:37 10° 298° (WNW) 07:35:11 437.200
DOVE 4 06 Dec 07:34:14 07:38:24 24° 296° (WNW) 07:42:31 437.250
CANX-2 06 Dec 07:39:38 07:43:52 84° 282° (WNW) 07:48:05 2200.000
AAUSAT CUBESAT 2 06 Dec 07:45:12 07:48:59 33° 97° (E) 07:52:44 437.432
NOAA 15 06 Dec 07:47:22 07:50:37 17° 301° (WNW) 07:53:54 137.62
Cubesat XI-IV 06 Dec 07:50:31 07:53:59 18° 301° (WNW) 07:57:27 437.490
HO-68 06 Dec 07:55:02 08:02:18 88° 107° (ESE) 08:09:31 435.675
Oscar 11 06 Dec 07:58:39 08:01:44 19° 92° (E) 08:04:49 145.826/435.025
PRISM 06 Dec 07:59:13 08:03:16 75° 73° (ENE) 08:07:21 437.425
RS-15 06 Dec 08:00:47 08:12:39 79° 306° (NW) 08:25:05 29.354- 29.394
SEEDS 06 Dec 08:04:58 08:09:09 75° 284° (WNW) 08:13:20 437.485
YUBILEINY 06 Dec 08:09:38 08:14:53 18° 285° (WNW) 08:20:09 435.215
UWE-3 06 Dec 08:14:50 08:19:04 51° 99° (E) 08:23:09 435.000/436.395/437.385
COMPASS 1 06 Dec 08:15:14 08:19:25 85° 284° (WNW) 08:23:35 437.405
UNISAT 6 06 Dec 08:33:05 08:37:28 40° 70° (ENE) 08:41:47 437.425
Cosmos 2491 06 Dec 08:38:53 08:45:51 26° 296° (WNW) 08:52:52 435.465 / 435.565
AIST 2 06 Dec 08:39:25 08:43:19 41° 311° (NW) 08:47:18 435.215
DELFI C3 06 Dec 08:43:34 08:46:34 20° 94° (E) 08:49:32 145.870
DANDE 06 Dec 08:44:35 08:45:29 11° 93° (E) 08:46:21 436.750
HUMSAT D 06 Dec 08:48:45 08:50:20 12° 90° (E) 08:51:54 437.325/437.525
CINEMA 3 06 Dec 08:53:22 08:55:53 14° 300° (WNW) 08:58:20 145.822/145.860
ZACube-1 06 Dec 08:55:42 08:59:58 89° 106° (ESE) 09:04:08 437.345
CUTE 1.7 + AOD 2 06 Dec 08:58:44 09:01:12 15° 297° (WNW) 09:03:41 437.475
TIGRISAT 06 Dec 09:02:41 09:07:21 74° 76° (ENE) 09:12:01 435.000
FUNcube-1 06 Dec 09:03:21 09:07:36 82° 285° (WNW) 09:11:45 145.935
ANTELSAT 06 Dec 09:04:10 09:08:52 81° 74° (ENE) 09:13:31 437.575/2403.000
CUBEBUG 2 06 Dec 09:09:24 09:13:09 28° 293° (WNW) 09:16:48 437.445
NANOSAT C BR1 06 Dec 09:12:16 09:13:34 11° 60° (ENE) 09:14:52 145.865
Cosmos 2504 06 Dec 09:15:00 09:18:15 13° 289° (WNW) 09:21:28 435.465 / 435.565
QB50P2 06 Dec 09:17:04 09:19:25 15° 62° (ENE) 09:21:48 145.880/145.840
POLYITAN 1 06 Dec 09:17:44 09:19:59 14° 62° (ENE) 09:22:14 437.675
AAUSAT CUBESAT 2 06 Dec 09:21:03 09:24:15 22° 293° (WNW) 09:27:28 437.432
QB50P1 06 Dec 09:29:55 09:32:52 18° 64° (ENE) 09:35:48 145.935-145.965
DUCHIFAT 1 06 Dec 09:32:45 09:35:30 17° 64° (ENE) 09:38:15 145.980
Oscar 11 06 Dec 09:34:00 09:38:02 40° 289° (WNW) 09:42:04 145.826/435.025
CUSAT 1 06 Dec 09:37:37 09:40:29 33° 283° (WNW) 09:43:01 437.405
AO-85 06 Dec 09:42:30 09:46:14 35° 48° (NE) 09:49:49 145.980
HO-68 06 Dec 09:44:05 09:49:07 21° 306° (NW) 09:54:08 435.675
JAS-2 06 Dec 09:48:36 09:54:48 52° 70° (ENE) 10:00:19 435.910
POPSAT HIP 1 06 Dec 09:50:33 09:54:15 29° 68° (ENE) 09:57:57 437.405
UWE-3 06 Dec 09:52:26 09:55:05 16° 297° (WNW) 09:57:41 435.000/436.395/437.385
PCSat 06 Dec 10:02:30 10:06:12 19° 106° (ESE) 10:09:57 145.827
ESTCUBE 1 06 Dec 10:04:12 10:06:12 13° 89° (E) 10:08:13 437.505/2401.250
UNISAT 6 06 Dec 10:10:34 10:14:16 23° 267° (W) 10:17:58 437.425
RS-15 06 Dec 10:16:47 10:27:29 34° 336° (NNW) 10:38:27 29.354- 29.394
Cosmos 2499 06 Dec 10:17:16 10:24:56 33° 67° (ENE) 10:32:06 435.465 / 435.565
DELFI C3 06 Dec 10:17:52 10:21:26 33° 290° (WNW) 10:25:01 145.870
HUMSAT D 06 Dec 10:22:19 10:26:19 58° 286° (WNW) 10:30:18 437.325/437.525
DANDE 06 Dec 10:23:36 10:28:04 52° 281° (W) 10:31:29 436.750
BUGSAT 1 06 Dec 10:28:05 10:31:34 25° 67° (ENE) 10:35:04 437.445
CUBEBUG 1 06 Dec 10:34:55 10:37:45 16° 91° (E) 10:40:34 437.445
TIGRISAT 06 Dec 10:42:37 10:44:32 12° 271° (W) 10:46:27 435.000
NANOSAT C BR1 06 Dec 10:44:23 10:48:39 80° 258° (WSW) 10:52:57 145.865
ANTELSAT 06 Dec 10:44:44 10:46:06 11° 272° (W) 10:47:29 437.575/2403.000
VELOX 1 06 Dec 10:46:30 10:49:00 15° 91° (E) 10:51:28 145.980
GONETS M04 06 Dec 10:47:59 10:56:19 47° 73° (ENE) 11:04:37
QB50P2 06 Dec 10:50:31 10:54:45 59° 259° (W) 10:59:00 145.880/145.840
POLYITAN 1 06 Dec 10:51:01 10:55:16 62° 259° (W) 10:59:33 437.675
DX 1 06 Dec 11:00:55 11:01:25 10° 89° (E) 11:01:55 434.975-435.025
QB50P1 06 Dec 11:04:12 11:08:17 45° 261° (W) 11:12:25 145.935-145.965
DUCHIFAT 1 06 Dec 11:06:41 11:10:49 49° 261° (W) 11:14:57 145.980
SPROUT 06 Dec 11:17:26 11:20:38 20° 93° (E) 11:23:50 437.525
AO-85 06 Dec 11:23:20 11:26:24 22° 247° (WSW) 11:29:24 145.980
POPSAT HIP 1 06 Dec 11:26:19 11:29:58 27° 265° (W) 11:33:39 437.405
50 SAT 06 Dec 11:30:40 11:33:54 32° 97° (E) 11:37:08 437.505
JAS-2 06 Dec 11:34:51 11:40:03 25° 265° (W) 11:44:50 435.910
ESTCUBE 1 06 Dec 11:38:59 11:43:27 67° 286° (WNW) 11:47:56 437.505/2401.250
Gurwin Techsat 1B 06 Dec 11:41:09 11:45:09 22° 62° (ENE) 11:49:09 435.225
Oscar 19 06 Dec 11:42:06 11:46:50 39° 68° (ENE) 11:51:37 437.125/150
PCSat 06 Dec 11:43:41 11:49:04 65° 304° (WNW) 11:54:29 145.827
AISAT 06 Dec 11:44:26 11:48:55 62° 101° (ESE) 11:53:20 437.250
BUGSAT 1 06 Dec 12:03:03 12:06:48 31° 264° (W) 12:10:35 437.445
CUBEBUG 1 06 Dec 12:10:00 12:14:18 50° 288° (WNW) 12:18:35 437.445
Cosmos 2499 06 Dec 12:10:08 12:18:32 57° 269° (W) 12:26:18 435.465 / 435.565
ITAMSAT 1 06 Dec 12:15:09 12:16:27 11° 55° (NE) 12:17:45 435.822/435.867
BEESAT 3 06 Dec 12:21:01 12:24:22 25° 45° (NE) 12:27:41 437.485
VELOX 1 06 Dec 12:21:25 12:25:49 58° 287° (WNW) 12:30:11 145.980
DX 1 06 Dec 12:33:44 12:38:09 79° 285° (WNW) 12:42:31 434.975-435.025
RS-15 06 Dec 12:34:46 12:45:00 29° 10° (N) 12:55:12 29.354- 29.394
TISAT 1 06 Dec 12:38:07 12:41:37 24° 95° (E) 12:45:04 437.305
UKube-1 06 Dec 12:40:18 12:44:40 89° 293° (WNW) 12:49:00 .
GONETS M04 06 Dec 12:45:05 12:53:00 41° 274° (W) 13:00:57
BEESAT 2 06 Dec 12:50:45 12:54:06 24° 44° (NE) 12:57:25 435.950
SPROUT 06 Dec 12:52:43 12:56:42 38° 290° (WNW) 13:00:39 437.525
AO-7 06 Dec 12:53:44 13:00:37 30° 54° (NE) 13:07:32 29.400- 29.500
50 SAT 06 Dec 13:04:37 13:06:58 17° 294° (WNW) 13:09:19 437.505
ITUPSAT 1 06 Dec 13:12:59 13:14:45 12° 89° (E) 13:16:30 437.325
Gurwin Techsat 1B 06 Dec 13:19:30 13:24:42 55° 260° (W) 13:29:56 435.225
Oscar 19 06 Dec 13:21:58 13:26:15 27° 265° (W) 13:30:35 437.125/150
AISAT 06 Dec 13:22:18 13:24:52 15° 299° (WNW) 13:27:26 437.250
PCSat 06 Dec 13:30:34 13:33:33 15° 325° (NW) 13:36:32 145.827
AUBIESAT-1 06 Dec 13:38:55 13:41:55 17° 96° (E) 13:44:49 437.475
ITAMSAT 1 06 Dec 13:49:48 13:55:00 72° 73° (ENE) 14:00:12 435.822/435.867
M-CUBED/EXP-1 PRIME 06 Dec 13:50:43 13:54:44 28° 99° (E) 13:58:36 437.505
BEESAT 3 06 Dec 13:58:24 14:02:04 36° 243° (WSW) 14:05:44 437.485
TISAT 1 06 Dec 14:13:32 14:17:15 30° 292° (WNW) 14:20:56 437.305
SWISSCUBE 06 Dec 14:16:26 14:21:09 59° 101° (E) 14:25:49 437.505
UKube-1 06 Dec 14:19:34 14:19:59 10° 302° (WNW) 14:20:23 .
BEESAT 06 Dec 14:20:27 14:25:09 58° 101° (E) 14:29:49 436.000
BEESAT 2 06 Dec 14:28:15 14:32:01 39° 243° (WSW) 14:35:45 435.950
O/OREOS (USA 219) 06 Dec 14:38:48 14:41:54 18° 100° (E) 14:44:59 437.305
AO-7 06 Dec 14:44:29 14:52:45 71° 254° (WSW) 15:01:06 29.400- 29.500
ITUPSAT 1 06 Dec 14:48:21 14:53:08 77° 287° (WNW) 14:57:52 437.325
RS-15 06 Dec 14:49:09 15:01:15 54° 42° (NE) 15:13:01 29.354- 29.394
ISS 06 Dec 15:10:19 15:12:46 20° 135° (SE) 15:15:16 145.825
AUBIESAT-1 06 Dec 15:12:07 15:16:38 55° 293° (WNW) 15:20:57 437.475
GOMX 1 06 Dec 15:19:27 15:21:38 13° 58° (ENE) 15:23:54 467.674
AIST 2 06 Dec 15:21:11 15:24:44 25° 44° (NE) 15:28:15 435.215
MOZHAYETS 4 06 Dec 15:22:57 15:27:30 65° 102° (ESE) 15:32:01
M-CUBED/EXP-1 PRIME 06 Dec 15:24:56 15:29:12 35° 297° (WNW) 15:33:20 437.505
CUBESAT XI-V 06 Dec 15:29:04 15:30:35 11° 88° (E) 15:32:06 437.345
CUTE-I 06 Dec 15:30:28 15:32:31 12° 56° (NE) 15:34:34 437.470
ITAMSAT 1 06 Dec 15:32:04 15:34:59 15° 270° (W) 15:37:55 435.822/435.867
BRITE-PL 06 Dec 15:43:24 15:47:31 45° 71° (ENE) 15:51:57 437.365/2234.400
NOAA 18 06 Dec 15:43:47 15:45:29 11° 53° (NE) 15:47:13 137.9125
NOAA 15 06 Dec 15:49:57 15:53:36 19° 60° (ENE) 15:57:14 137.62
KKS-1 06 Dec 15:50:07 15:54:30 51° 100° (E) 15:58:51 437.445
Cubesat XI-IV 06 Dec 15:54:33 15:58:18 20° 60° (ENE) 16:02:02 437.490
STARS 06 Dec 15:55:14 15:59:02 27° 96° (E) 16:02:46 437.465
SWISSCUBE 06 Dec 15:55:23 15:58:28 17° 299° (WNW) 16:01:33 437.505
BEESAT 06 Dec 15:59:21 16:02:29 18° 299° (WNW) 16:05:36 436.000
HORYU 2 06 Dec 16:03:29 16:07:55 64° 73° (ENE) 16:12:22 437.375
O/OREOS (USA 219) 06 Dec 16:16:30 16:20:55 48° 298° (WNW) 16:25:20 437.305
ITUPSAT 1 06 Dec 16:29:35 16:30:07 10° 304° (WNW) 16:30:40 437.325
LilacSat-2 06 Dec 16:40:03 16:43:38 38° 72° (ENE) 16:47:13 437.200
HO-68 06 Dec 16:40:48 16:44:59 17° 50° (NE) 16:49:10 435.675
AO-7 06 Dec 16:43:20 16:46:58 13° 274° (W) 16:50:39 29.400- 29.500
CINEMA 3 06 Dec 16:43:46 16:45:08 11° 57° (ENE) 16:46:29 145.822/145.860
ISS 06 Dec 16:45:45 16:49:01 59° 332° (NNW) 16:52:18 145.825
Cosmos 2491 06 Dec 16:48:20 16:56:26 40° 71° (ENE) 17:04:27 435.465 / 435.565
GOMX 1 06 Dec 16:54:21 16:58:55 82° 256° (WSW) 17:03:54 467.674
AIST 2 06 Dec 16:59:22 17:03:21 41° 242° (WSW) 17:07:18 435.215
MOZHAYETS 4 06 Dec 17:01:37 17:04:09 15° 299° (WNW) 17:06:39
DOVE 4 06 Dec 17:02:07 17:06:48 53° 72° (ENE) 17:11:47 437.250
RS-15 06 Dec 17:02:07 17:14:00 57° 247° (WSW) 17:25:30 29.354- 29.394
CUBESAT XI-V 06 Dec 17:03:50 17:08:30 78° 286° (WNW) 17:13:10 437.345
CUTE-I 06 Dec 17:06:19 17:11:41 78° 74° (ENE) 17:17:04 437.470
YUBILEINY 06 Dec 17:19:08 17:25:32 24° 79° (E) 17:31:56 435.215
NOAA 18 06 Dec 17:19:39 17:25:08 69° 72° (ENE) 17:30:40 137.9125
BRITE-PL 06 Dec 17:23:26 17:26:21 18° 270° (W) 17:29:25 437.365/2234.400
KKS-1 06 Dec 17:27:40 17:30:40 18° 297° (WNW) 17:33:40 437.445
NOAA 15 06 Dec 17:27:42 17:32:53 62° 258° (WSW) 17:38:06 137.62
STARS 06 Dec 17:31:29 17:35:21 30° 292° (WNW) 17:39:11 437.465
Cubesat XI-IV 06 Dec 17:32:31 17:37:51 64° 258° (WSW) 17:43:13 437.490
HORYU 2 06 Dec 17:42:42 17:44:53 13° 270° (W) 17:47:03 437.375
Cosmos 2504 06 Dec 18:06:09 18:12:18 23° 78° (ENE) 18:18:38 435.465 / 435.565
CUTE 1.7 + AOD 2 06 Dec 18:15:20 18:19:19 43° 72° (ENE) 18:23:19 437.475
LilacSat-2 06 Dec 18:15:39 18:18:05 16° 268° (W) 18:20:31 437.200
CINEMA 3 06 Dec 18:16:25 18:21:21 77° 75° (ENE) 18:26:24 145.822/145.860
SO-50 06 Dec 18:17:31 18:18:50 11° 107° (ESE) 18:20:07 436.795
ISS 06 Dec 18:23:20 18:26:00 22° 351° (N) 18:28:41 145.825
HO-68 06 Dec 18:24:24 18:31:32 75° 71° (ENE) 18:38:43 435.675
FUNcube-1 06 Dec 18:27:25 18:28:17 10° 60° (ENE) 18:29:09 145.935
CUBEBUG 2 06 Dec 18:31:30 18:35:38 31° 68° (ENE) 18:39:45 437.445
CANX-2 06 Dec 18:33:13 18:37:26 80° 75° (ENE) 18:41:39 2200.000
AAUSAT CUBESAT 2 06 Dec 18:36:42 18:40:08 26° 68° (ENE) 18:43:35 437.432
DOVE 4 06 Dec 18:41:27 18:44:52 19° 271° (W) 18:48:24 437.250
Cosmos 2491 06 Dec 18:45:11 18:53:23 48° 272° (W) 19:01:34 435.465 / 435.565
PCSat 06 Dec 18:47:26 18:51:52 25° 44° (NE) 18:56:17 145.827
CUTE-I 06 Dec 18:49:29 18:52:19 14° 271° (W) 18:55:09 437.470
Oscar 11 06 Dec 18:54:57 18:57:55 18° 64° (ENE) 19:00:53 145.826/435.025
SEEDS 06 Dec 18:57:26 19:01:36 86° 76° (ENE) 19:05:47 437.485
NOAA 18 06 Dec 19:02:44 19:06:18 17° 269° (W) 19:09:53 137.9125
COMPASS 1 06 Dec 19:06:46 19:10:52 74° 74° (ENE) 19:15:00 437.405
